Home   Weather   Morgantown   Past weeks
Flag for USA

Past Weather in Morgantown, West Virginia, USA — Yesterday and Last 2 Weeks

Now
75 °F

Partly cloudy.


Feels Like: 76 °F
Forecast: 75 / 64 °F
Wind: 5 mph from South

Location: Morgantown Municipal-Hart Field

Current Time: Jul 22, 2019 at 1:56:14 am

Latest Report: Jul 22, 2019 at 1:20 am


Visibility: 10 mi

Pressure: 29.95 "Hg

Humidity: 76%

Dew Point: 67 °F

Location of MorgantownLocation

Past Weather in Morgantown — Graph

°F

Morgantown Temperature Yesterday

Maximum temperature yesterday: 93 °F (at 2:53 pm)
Minimum temperature yesterday: 75 °F (at 1:53 am)
Average temperature yesterday: 82 °F

High & Low Weather Summary for the Past Weeks

 TemperatureHumidityPressure
High93 °F (Jul 21, 2:53 pm)100% (Jul 7, 3:26 am)30.15 "Hg (Jul 7, 3:26 am)
Low62 °F (Jul 13, 4:23 am)40% (Jul 15, 3:53 pm)29.80 "Hg (Jul 11, 8:53 pm)
Average76 °F79%29.98 "Hg
* Reported Jul 7 12:36 am — Jul 22 12:33 am, Morgantown. Weather by CustomWeather, © 2019

Note: Actual official high and low records may vary slightly from our data, if they occured in-between our weather recording intervals... More about our weather records

Advertising

Morgantown Weather History for the Previous 24 Hours

Scroll right to see more
 ConditionsComfort  
Time TempWeatherWind HumidityBarometerVisibility
12:33 am
Mon, Jul 22
75 °FPassing clouds.3 mph76%29.97 "Hg10 mi
11:53 pm
Sun, Jul 21
75 °FClear.3 mph79%29.93 "Hg10 mi
10:53 pm76 °FClear.No wind77%29.93 "Hg10 mi
9:53 pm77 °FPassing clouds.3 mph74%29.94 "Hg10 mi
8:53 pm78 °FOvercast.3 mph71%29.95 "Hg10 mi
7:53 pm79 °FThundershowers. Passing clouds.8 mph67%29.93 "Hg10 mi
6:53 pm84 °FSunny.12 mph63%29.90 "Hg10 mi
5:53 pm89 °FScattered clouds.14 mph59%29.89 "Hg10 mi
4:53 pm93 °FScattered clouds.8 mph49%29.88 "Hg10 mi
3:53 pm92 °FScattered clouds.7 mph49%29.90 "Hg10 mi
2:53 pm93 °FPartly sunny.8 mph46%29.91 "Hg10 mi
1:53 pm91 °FPartly sunny.12 mph50%29.93 "Hg10 mi
12:53 pm89 °FScattered clouds.6 mph57%29.95 "Hg10 mi
11:53 am87 °FScattered clouds.7 mph65%29.96 "Hg10 mi
10:53 am86 °FScattered clouds.5 mph70%29.96 "Hg10 mi
9:53 am84 °FSunny.6 mph72%29.97 "Hg10 mi
8:53 am80 °FSunny.5 mph81%29.97 "Hg10 mi
7:53 am77 °FScattered clouds.5 mph88%29.97 "Hg7 mi
6:53 am75 °FFog.No wind94%29.97 "Hg6 mi
5:53 am75 °FPassing clouds.5 mph90%29.94 "Hg8 mi
4:53 am76 °FClear.No wind88%29.92 "Hg9 mi
3:53 am77 °FClear.3 mph85%29.91 "Hg9 mi
2:53 am76 °FClear.5 mph88%29.93 "Hg9 mi
1:53 am75 °FClear.3 mph90%29.93 "Hg9 mi
Weather by CustomWeather, © 2019

See weather overview